SCP
0 0 0 0 0 0 0 0 0 0 0 0 0 0 0 0 0 0 0 0 0 0 0 0 0 0 0 0 0 0 0 0 0 0 0 0 0 0
0 0 0 0 0 0 0 0 0 0 0 0 0 0 0 0 0 0 0 0 0 0 0 0 0 0 0 0 0 0 0 0 0 0 0 0 0 0
0 0 0 0 0 0 0 0 0 0 0 0 0 0 0 0 0 0 0 0 0 0 0 0 0 0 0 0 0 0 0 0 0 0 0 0 0 0
0 0 0 0 0 0 0 0 0 0 0 0 0 0 0 0 0 0 0 0 0 0 0 0 0 0 0 0 0 0 0 0 0 0 0 0 0 0
0 0 0 0 0 0 0 0 0 0 0 0 0 0 0 0 0 0 0 0 0 0 0 0 0 0 0 0 0 0 0 0 0 0 0 0 0 0
0 0 0 0 0 0 0 0 0 0 0 0 0 0 0 0 0 0 0 0 0 0 0 0 0 0 0 0 0 0 0 0 0 0 0 0 0 0
0 0 0 0 0 0 0 0 0 0 0 0 0 0 0 0 0 0 0 0 0 0 0 0 0 0 0 0 0 0 0 0 0 0 0 0 0 0
0 0 0 0 0 0 0 0 0 0 0 0 0 0 0 0 0 0 0 0 0 0 0 0 0 0 0 0 0 0 0 0 0 0 0 0 0 0
0 0 0 0 0 0 0 0 0 0 0 0 0 0 0 0 0 0 0 0 0 0 0 0 0 0 0 0 0 0 0 0 0 0 0 0 0 0
0 0 0 0 0 0 0 0 0 0 0 0 0 0 0 0 0 0 0 0 0 0 0 0 0 0 0 0 0 0 0 0 0 0 0 0 0 0
0 0 0 0 0 0 0 0 0 0 0 0 0 0 0 0 0 0 0 0 0 0 0 0 0 0 0 0 0 0 0 0 0 0 0 0 0 0
0 0 0 0 0 0 0 0 0 0 0 0 0 0 0 0 0 0 0 0 0 0 0 0 0 0 0 0 0 0 0 0 0 0 0 0 0 0
0 0 0 0 0 0 0 0 0 0 0 0 0 0 0 0 0 0 0 0 0 0 0 0 0 0 0 0 0 0 0 0 0 0 0 0 0 0
0 0 0 0 0 0 0 0 0 0 0 0 0 0 0 0 0 0 0 0 0 0 0 0 0 0 0 0 0 0 0 0 0 0 0 0 0 0
0 0 0 0 0 0 0 0 0 0 0 0 0 0 0 0 0 0 0 0 0 0 0 0 0 0 0 0 0 0 0 0 0 0 0 0 0 0
0 0 0 0 0 0 0 0 0 0 0 0 0 0 0 0 0 0 0 0 0 0 0 0 0 0 0 0 0 0 0 0 0 0 0 0 0 0
0 0 0 0 0 0 0 0 0 0 0 0 0 0 0 0 0 0 0 0 0 0 0 0 0 0 0 0 0 0 0 0 0 0 0 0 0 0
0 0 0 0 0 0 0 0 0 0 0 0 0 0 0 0 0 0 0 0 0 0 0 0 0 0 0 0 0 0 0 0 0 0 0 0 0 0
0 0 0 0 0 0 0 0 0 0 0 0 0 0 0 0 0 0 0 0 0 0 0 0 0 0 0 0 0 0 0 0 0 0 0 0 0 0
0 0 0 0 0 0 0 0 0 0 0 0 0 0 0 0 0 0 0 0 0 0 0 0 0 0 0 0 0 0 0 0 0 0 0 0 0 0
0 0 0 0 0 0 0 0 0 0 0 0 0 0 0 0 0 0 0 0 0 0 0 0 0 0 0 0 0 0 0 0 0 0 0 0 0 0
0 0 0 0 0 0 0 0 0 0 0 0 0 0 0 0 0 0 0 0 0 0 0 0 0 0 0 0 0 0 0 0 0 0 0 0 0 0
0 0 0 0 0 0 0 0 0 0 0 0 0 0 0 0 0 0 0 0 0 0 0 0 0 0 0 0 0 0 0 0 0 0 0 0 0 0
Wind_Speed
3 3 3 2 2 2 2 3 3 2 1 2 2 2 1 1 2 2 1 3 2 1 1 2 1 1 2 1 2 2 2 2 2 3 3 3 3 3
2 2 3 2 2 2 2 3 3 3 2 1 1 1 0 1 2 2 1 3 4 3 2 2 2 2 2 1 1 1 2 2 3 3 3 3 4 3
3 3 3 2 2 2 2 2 3 3 3 2 1 2 2 2 2 2 3 3 2 5 3 3 3 3 3 2 2 2 2 2 2 3 3 3 3 3
3 3 3 3 3 3 2 2 2 3 4 3 2 2 2 3 3 3 3 2 2 5 5 4 3 3 3 3 3 3 2 3 3 3 3 3 3 3
3 3 3 2 2 2 3 3 3 3 3 3 3 2 2 2 2 3 2 2 3 4 6 6 5 5 5 4 4 3 3 3 3 3 3 3 4 3
3 3 2 2 2 2 2 3 3 3 3 4 3 3 2 2 3 3 3 2 3 2 2 3 5 7 7 6 5 5 4 4 4 4 4 4 4 3
3 3 2 1 1 2 2 1 2 2 3 3 3 3 2 2 3 2 3 2 3 3 3 3 3 4 5 7 7 5 5 5 5 5 5 5 4 4
3 3 4 4 3 2 1 2 3 3 3 3 3 2 2 3 3 3 3 3 3 2 3 4 3 3 3 2 4 5 5 5 5 5 5 5 4 4
3 3 3 2 3 3 4 5 4 4 4 5 4 4 4 3 4 5 3 5 4 2 4 5 4 4 2 1 6 6 5 5 5 5 5 5 5 5
3 4 3 2 2 3 3 4 4 4 5 5 4 5 4 3 4 5 5 5 6 4 4 5 4 3 3 1 6 6 6 6 5 5 5 5 5 6
4 3 3 3 1 3 4 4 4 5 5 4 4 3 3 4 4 5 5 5 5 4 3 4 4 4 3 3 4 7 7 7 6 6 6 6 6 7
3 4 2 2 2 3 5 5 5 5 4 4 6 7 7 6 7 6 6 5 5 4 1 3 4 3 4 3 2 3 4 6 7 7 7 7 6 6
3 3 2 3 3 4 6 5 5 6 5 6 5 5 5 5 6 5 5 5 6 5 3 3 5 4 4 4 3 3 3 3 4 5 7 8 7 6
3 2 1 3 3 5 5 4 5 6 6 5 5 4 4 4 3 4 4 5 5 6 5 5 5 5 6 5 4 3 3 3 3 3 3 5 7 9
2 1 1 3 5 6 7 7 7 6 5 5 5 4 4 3 3 3 5 5 7 6 5 5 6 5 6 5 5 4 4 3 3 3 3 4 4 4
3 3 5 6 6 5 4 6 6 4 5 5 5 4 3 3 4 4 4 4 5 4 4 4 5 6 6 6 6 5 4 3 3 3 4 4 4 4
3 4 3 3 4 3 3 3 4 4 5 5 5 5 4 4 4 4 3 4 5 5 4 3 4 5 7 6 6 5 4 4 4 3 4 5 4 4
4 5 4 4 4 3 4 3 3 4 4 4 4 4 4 4 4 4 4 4 5 5 4 3 3 3 4 4 4 6 5 4 4 3 4 5 5 4
6 5 4 4 4 4 4 4 3 2 3 4 4 4 4 4 4 4 4 5 5 5 4 4 3 4 6 5 3 3 5 5 4 4 4 4 5 4
5 4 4 4 4 4 3 3 3 3 3 4 4 4 4 4 4 4 4 5 5 4 4 4 3 4 5 6 5 3 3 5 4 4 4 4 4 2
4 4 4 3 3 3 3 3 3 3 3 4 4 4 4 4 4 5 4 3 5 5 5 4 2 3 4 4 5 4 2 3 3 4 5 4 4 5
4 4 3 3 3 3 2 3 3 3 3 3 3 3 4 4 4 4 4 4 4 4 4 3 2 3 4 4 5 4 4 2 3 4 4 4 4 5
3 3 3 3 3 2 2 2 3 3 3 3 3 3 3 3 4 4 4 4 4 4 3 3 3 3 3 4 4 4 5 5 3 2 3 5 6 6
Wind_Direction
214 207 227 213 241 247 247 256 262 246 210 166 194 157 197 176 128 230 216 138 173 213 247 254 260 275 282 272 248 236 227 227 222 223 225 224 226 240
223 226 234 215 223 237 235 240 253 262 267 174 194 160 220 263 174 251 248 164 194 199 215 226 238 255 263 271 272 246 228 226 227 226 231 230 229 237
209 203 212 238 235 232 228 230 235 239 243 239 212 157 198 253 246 250 238 233 185 172 183 203 223 238 245 244 241 242 236 230 235 234 233 235 236 239
200 202 210 207 221 242 240 236 236 239 242 241 227 211 218 229 236 246 249 243 240 156 178 199 216 228 236 238 234 235 239 238 238 240 239 240 244 246
198 203 206 210 224 237 244 237 231 227 234 234 234 216 222 221 228 234 251 261 253 186 184 194 204 216 222 226 225 225 230 236 236 241 243 243 244 246
198 203 209 210 226 238 237 243 245 243 234 236 234 221 221 211 238 241 244 239 261 262 250 224 198 206 215 215 213 214 220 231 236 241 241 237 236 235
196 194 183 165 21 302 289 267 249 248 246 240 234 235 234 239 250 263 266 264 254 253 261 250 223 227 208 200 203 207 216 224 231 235 235 233 228 229
212 207 194 190 177 188 305 324 309 272 268 266 252 257 261 268 273 271 271 268 264 240 269 269 261 262 256 238 155 180 210 224 229 231 230 223 220 221
218 226 236 186 216 212 203 212 227 245 256 269 276 277 271 281 284 273 278 282 287 277 267 272 265 266 261 150 150 174 201 222 230 229 225 222 222 228
221 226 233 232 243 262 242 233 238 235 235 238 259 270 280 286 267 269 271 262 258 248 246 270 274 275 275 244 161 181 199 210 218 225 223 223 227 235
224 222 230 225 204 272 251 241 244 240 216 215 239 253 275 277 277 267 264 266 270 264 244 272 284 289 275 250 179 184 201 205 210 217 220 225 232 239
214 209 200 237 225 255 252 251 253 259 260 229 223 226 232 227 225 245 265 270 280 281 267 273 281 288 279 258 248 211 207 204 209 215 217 223 234 250
231 222 178 160 210 237 252 255 261 273 260 250 242 235 228 228 225 229 249 269 277 277 290 273 280 278 274 282 277 263 251 240 226 222 215 216 219 237
247 247 154 166 225 242 244 253 257 261 258 253 251 250 248 248 241 242 246 257 270 278 289 287 281 280 277 277 277 271 264 256 249 247 243 212 218 226
271 32 225 219 237 236 229 238 243 247 254 256 255 257 261 262 257 238 236 240 249 255 258 260 270 276 272 273 275 274 273 265 250 253 249 243 240 237
232 199 201 218 236 250 230 222 235 252 261 262 264 261 262 249 245 251 256 252 254 249 233 241 253 266 269 274 274 269 267 266 262 260 266 257 246 240
248 236 229 221 227 234 238 237 238 233 237 251 258 258 252 248 250 253 258 266 265 264 253 232 239 249 261 270 270 271 268 267 265 264 263 264 257 248
244 238 237 241 245 250 253 240 236 248 252 249 251 257 262 260 259 256 254 257 264 266 268 265 253 257 261 249 243 267 269 269 270 257 259 265 268 263
232 240 243 247 252 257 260 261 262 261 268 262 258 257 259 260 257 257 256 257 260 263 265 263 256 261 270 277 245 232 274 277 274 264 261 270 275 283
239 245 245 245 249 256 262 264 267 266 264 271 273 269 263 261 258 256 255 261 267 269 268 267 267 270 279 292 298 283 235 270 275 273 273 277 283 278
240 247 254 256 258 258 261 263 265 267 274 278 279 284 279 267 262 262 262 252 263 270 275 279 300 271 274 272 272 279 273 212 251 272 276 271 270 266
254 254 253 254 253 256 258 263 259 261 266 267 280 284 283 282 277 272 275 270 263 270 280 286 274 264 269 270 276 281 281 268 214 225 254 271 283 281
263 262 259 253 251 251 256 263 265 269 277 281 281 282 287 290 290 286 280 276 275 272 275 277 279 275 277 279 282 285 289 289 277 260 253 222 223 239